Regional Weather Roundup
Issued by NWS Wakefield, VA

Home | Current Version | Previous Version | Text Only | Print | Product List | Glossary Off
Versions: 1 2 3 4 5 6 7 8 9 10 11 12 13 14 15 16 17 18 19 20 21 22 23 24 25 26 27 28 29 30 31 32 33 34 35 36 37 38 39 40 41 42 43 44 45 46 47 48 49 50

542
ASUS41 KAKQ 311615
RWRAKQ

REGIONAL WEATHER ROUNDUP
NATIONAL WEATHER SERVICE WAKEFIELD VA
1200 PM EDT TUE MAY 31 2016

Note: "fair" indicates few or no clouds below 12,000 feet with no
significant weather and/or obstructions to visibility. * = Denotes
station may not report precipitation (e.g., rain,snow,etc.),
thunder or fog.

VAZ042-051-052>054-056-311700-
NORTHERN VIRGINIA

CITY           SKY/WX    TMP DP  RH WIND       PRES   REMARKS
WASH NATIONAL  PTSUNNY   80  69  69 SE5       29.99S
DULLES         PTSUNNY   82  66  58 NE5       29.99F
FORT BELVOIR   FAIR      80  68  66 SE2       29.99S
QUANTICO       FAIR      78  70  76 S6        30.00S
FREDERICKSBRG* PTSUNNY   79  71  75 SE5       29.99S
STAFFORD*      FAIR      79  67  66 NE5       30.03S
WARRENTON      FAIR      82  63  52 NE6       29.99F
CULPEPER*      FAIR      83  69  62 E3        30.00S
MANASSAS*      PTSUNNY   82  66  57 NW3       29.99S
LEESBURG*      FAIR      82  68  61 CALM      30.00F
WINCHESTER     FAIR      81  63  54 SE3       30.02S
FRONT ROYAL*   FAIR      77  64  65 CALM      30.01F
LURAY*         FAIR      79  63  57 N8        30.02F
$$

VAZ048-049-060>072-079>083-311700-
CENTRAL AND SOUTH CENTRAL VIRGINIA

CITY           SKY/WX    TMP DP  RH WIND       PRES   REMARKS
RICHMOND       PTSUNNY   78  68  71 VRB5      29.99S
CHESTERFIELD*    N/A    N/A N/A N/A MISG        N/A
PETERSBURG*    FAIR      79  67  67 NE7       30.00S
HANOVER        FAIR      80  65  59 MISG      30.00F
TAPPAHANNOCK*  FAIR      80  69  68 E3        30.00S
QUINTON*       PTSUNNY   76  69  80 N10       29.98S
CHARLOTTSVILLE FAIR      82  65  56 VRB3      30.00S
GORDONSVILLE*  PTSUNNY   80  68  66 NE3       30.00S
ORANGE*        FAIR      82  68  61 NE7       30.02S
LOUISA*        CLOUDY    82  73  74 NE3       30.00R
BUMPASS*       PTSUNNY   76  70  81 N3        30.01R
FARMVILLE*     PTSUNNY   81  69  67 CALM      29.99S
CREWE*         CLOUDY    76  73  91 N3        30.00S
FORT PICKETT*  NOT AVBL
CHASE CITY*    PTSUNNY   78  70  76 NE3       30.00S
CLARKSVILLE*   FAIR      77  70  78 E6        29.99S
SOUTH HILL*    FAIR      78  68  69 CALM      30.05S
LAWRENCEVILLE* FAIR      77  69  76 E5        30.00R
EMPORIA*       PTSUNNY   77  68  73 N3        30.00R
$$

VAZ088>098-311700-
SOUTHEAST VIRGINIA

CITY           SKY/WX    TMP DP  RH WIND       PRES   REMARKS
NORFOLK        PTSUNNY   75  68  78 NE9       29.99R
VIRGINIA BEACH PTSUNNY   81  68  64 E7        29.98R
NORFOLK NAVAL  PTSUNNY   76  70  82 N7        30.00S
WEST POINT*    PTSUNNY   77  67  70 CALM      30.00S
SALUDA*        PTSUNNY   75  71  87 SE5       29.99S
NEWPORT NEWS   PTSUNNY   76  70  82 E7        29.99R
LANGLEY AFB    MOSUNNY   75  70  83 E8        29.99S
FORT EUSTIS    PTSUNNY   78  72  83 VRB5      29.97S
WILLIAMSBURG*  FAIR      79  72  78 CALM      30.00R
HR EXEC AP*    FAIR      79  70  73 NE6       30.00S
FRANKLIN*      CLOUDY    77  68  74 N6        29.98S
US460-WAKEFLD  FAIR      78  68  71 VRB3      29.98S
$$

VAZ020-022-025-037-045-311700-
WEST CENTRAL AND SOUTHWEST VIRGINIA

CITY           SKY/WX    TMP DP  RH WIND       PRES   REMARKS
STAUNTON*      FAIR      77  64  62 E7        30.05S
WAYNESBORO*    FAIR      78  58  49 N8        30.04S
HOT SPRINGS VA FAIR      71  54  54 E8        30.14S
LYNCHBURG      FAIR      80  64  58 NE8       30.02F
DANVILLE       PTSUNNY   80  68  66 N3        30.00S
SOUTH BOSTON*  FAIR      80  71  74 CALM      30.00S
MARTINSVILLE   FAIR      79  66  64 NE3       30.03F
ROANOKE        FAIR      80  64  58 N10       30.05S
BLACKSBURG     FAIR      77  64  64 E6        30.10S
DUBLIN*        FAIR      78  65  64 NE8       30.09R
MARION*        FAIR      78  59  51 E9        30.11S
HILLSVILLE*    FAIR      76  62  62 E7        30.08F
RICHLANDS*     FAIR      77  54  43 E3        30.09F
WISE*          FAIR      77  55  47 N3        30.11S
ABINGDON*      FAIR      81  61  50 E6        30.06S
$$

MDZ021>025-VAZ099-100-311700-
SOUTHERN MARYLAND AND THE DELMARVA PENINSULA

CITY           SKY/WX    TMP DP  RH WIND       PRES   REMARKS
PATUXENT RIVER PTSUNNY   75  67  76 SE9       29.99R
BAY BRIDGE APT PTSUNNY   75  70  83 W6        29.99S
LEONARDTOWN    SUNNY     77  66  69 CALM      30.00S
DOVER          PTSUNNY   79  74  84 VRB2      29.96S
GEORGETOWN     PTSUNNY   79  67  66 VRB3      29.99S
EASTON         PTSUNNY   81  73  78 NW5       30.02R
CAMBRIDGE      PTSUNNY   77  68  73 CALM      29.98S
SALISBURY      PTSUNNY   77  68  73 NW8       29.98S
OCEAN CITY     SUNNY     72  67  84 SE7       29.99S
WALLOPS ISLAND FAIR      76  69  79 E5        29.99S
ACCOMACK*      PTSUNNY   75  66  73 CALM      29.98S
$$

NCZ012>017-030>032-311700-
NORTH CENTRAL AND EASTERN NORTH CAROLINA

CITY           SKY/WX    TMP DP  RH WIND       PRES   REMARKS
ROANOKE RAPIDS PTSUNNY   77  68  73 NE5       29.98S
RALEIGH        PTSUNNY   79  68  69 NE6       29.98F
ELIZABETH CITY CLOUDY    77  69  76 NE7       29.98S
AHOSKIE*       MOSUNNY   77  67  71 NE7       29.98S
EDENTON*       CLOUDY    78  53  42 E6        29.98S
CURRITUCK*     CLOUDY    76  69  79 E6        29.99S
KILL DEVIL HLS PTSUNNY   76  69  79 NE5       29.98S
MANTEO         PTSUNNY   74  72  92 NE10      29.99S
CAPE HATTERAS  PTSUNNY   74  71  91 NE9       29.96S
TARBORO*       PTSUNNY   79  70  73 E6        29.98F
GOLDSBORO      MOSUNNY   80  75  83 NE9       29.94S
WASHINGTON     SUNNY     78  71  78 NE12      29.96F
GREENVILLE     PTSUNNY   81  72  74 E9        29.98S
NEW BERN       LGT RAIN  77  71  82 N5        29.95F
WILMINGTON     CLOUDY    77  72  84 E8        29.91S
$$

VAZ048-311700-
ELSEWHERE

CITY           SKY/WX    TMP DP  RH WIND       PRES   REMARKS
HARRISBURG PA  MOSUNNY   81  55  40 N8        29.99S
BALTIMORE      PTSUNNY   81  66  60 VRB3      29.98S
ANNAPOLIS      MOSUNNY   76  71  85 SE6       29.98S
ANDREWS AFB    PTSUNNY   78  70  75 NE5       29.99S
PHILADELPHIA   MOSUNNY   84  57  39 NE8       29.96F
HENDERSON NC   PTSUNNY   74  67  76 NE6       30.00S
GREENSBORO     PTSUNNY   83  66  56 E8        29.99F
ROCKY MOUNT    MOSUNNY   81  68  64 NE8       29.97S
$$

VAZ100-311700-
MARINE

STATION/POSITION TIME  TEMP    WIND        PRES    WAVE   SWELL
                       AIR SEA DIR/SP/G            HT/PER HT/PER
                 (UTC) (F)     (DEG/KT/KT) (MB)    (FT/S) (FT/S)
BRANDYWINE LGT   1500   68     240/  3/  3 1015.4R
CAPE MAY NJ      1500   71 69  250/  5/  5 1015.1R
LEWES DE         1500   71 63   CALM  /  1 1015.2R
15NM E FENWICK I 1550   68 67              1015.5R   4/ 8
OCEAN-CITY-INLET 1500   69 66  110/  4/  5 1015.6R
WACHAPREAGUE VA  1500   74 74   10/  5/  7 1014.9S
THOMAS POINT MD  1600   73 69  320/  2/  2 1016.8F
GOOSES REEF MD   1600   74 73     CALM     1016.6R   0
COVE POINT MD    1500   69     180/  2/  3 1016.0F
SOLOMONS ISLAND  1500   73 68   CALM  /  2   N/A
BISHOPS HEAD MD  1500   72 73  170/  3/  4 1015.5F
PINEY POINT MD   1500          210/  4/  5   N/A
POTOMAC MD       1600   71 73  120/  2/  4 1014.7R   0
CAMBRIDGE MD     1500   74 70   70/  2/  3 1014.4F
LEWISETTA VA     1500   72 72  150/  1/  2 1015.4R
RAPPAHANNOCK LGT 1500          360/  8/  8 1015.8F
STINGRAY PT      1600   71 71   70/  6/  6 1016.1R   0
YORK RVR RNG VA  1500   70     100/  6/  7 1014.8F
YORKTOWN VA      1500   73 71  120/  2/  4 1015.0F
JAMESTOWN VA     1600   74 75  170/  6/  8   N/A     0
DOMINION TERM VA 1500   71      90/  6/  8 1015.5R
KIPTOPEKE VA     1500      69  330/ 10/ 12   N/A
CHES BAY BRIDGE  1500   70 70   20/  4/  5 1015.4R
CAPE HENRY VA    1500   70      30/  4/  5   N/A
CHESAPEAKE LGHT  1500   69      40/  4/  5 1016.2
WILLOUBY STN VA  1500   71      40/  8/ 10 1016.5R
CAPE HENRY BUOY  1512      70                N/A     4/ 7
1ST LANDING BUOY 1600   69 70   70/  4/  6 1015.6R   2/ 6
CAPE CHARLES BUO 1526      69                N/A     3/ 7   3/ 7
OFFSHORE WE BUOY 1521      71                N/A     5/ 8   5/ 8
64NM E OF VA BCH 1550   66 65   20/  4/  4 1015.3R   5/ 9   5/ 9
DUCK PIER NC     1500   67 59   40/  5/  5 1014.5R
44056 DUCK FRF   1511      68                N/A     3/ 8
OREGON INLET NC  1500   69 71   30/  9/ 14 1014.9R
HATTERAS NC      1500   73 74   50/  8/ 11 1014.1R
DIAMOND SHLS NC  1550   76 80  360/ 10/ 12 1014.2S   5/ 8   5/ 8
CAPE LOOKOUT NC  1600   76      60/ 10/ 11 1013.6R
$$




USA.gov is the U.S. government's official web portal to all federal, state and local government web resources and services.